Location: Cruquius
(52.3348°N, 4.6319°E)
Time: 12:55:37
(UTC+00:00)

Meteor 1-11 Rocket - Pass Details

Date: 12 May 2021
Orbit: 831 x 916 km, 81.2° (Epoch: 19 June)

Event Time Altitude Azimuth Distance (km) Brightness Sun altitude
Rises 20:29:23 0° 349° (NNW) 3,568 8.0 -8.4°
Reaches altitude 10° 20:31:59 10° 355° (N) 2,621 7.1 -8.6°
Maximum altitude 20:37:47 49° 70° (ENE) 1,164 4.3 -9.2°
Enters shadow 20:43:03 12° 143° (SE) 2,421 5.4 -9.8°
